Location: Newark
(42.7133°N, 87.7910°W)
Time: 17:07:02
(UTC+00:00)

Transit 4A - Pass Details

Date: 22 September 2019
Orbit: 867 x 978 km, 66.8° (Epoch: 21 October)

Event Time Altitude Azimuth Distance (km) Brightness Sun altitude
Rises 03:51:17 0° 308° (NW) 3,560 11.8 -40.0°
Reaches altitude 10° 03:56:00 10° 276° (W) 2,580 10.6 -40.5°
Enters shadow 03:57:05 11° 265° (W) 2,503 10.4 -40.6°
